Погода в Измире

Турция     38°25′43″N   27°08′04″E
темп.,
°C
ветер,
м/с
пор.,
м/с
влажн.,
%
обл.,
%
осадки,
мм/ч
давл.,
гПа
погр.,
м
7 мая, пт
пт700:00+18св11596 0.0 101536
03:00+17всв11659 0.0 101423
06:00+16всв11725 0.0 101427
09:00+21в235296 0.0 1015399
12:00+26юв013010 0.0 10151093
15:00+28зюз332272 0.0 10131566
18:00+27з442837 0.0 10121017
21:00+21зюз22399 0.0 1013117
8 мая, сб
сб800:00+20ююз223683 0.0 101352
03:00+20ююв1137100 0.0 101120
06:00+19ссз1132100 0.0 101116
09:00+21всв333178 0.0 101171
12:00+27вюв232199 0.0 1012977
15:00+28зсз2321100 0.1 10111574
18:00+28сз32230 0.0 10101532
21:00+21ссз224011 0.0 101284
9 мая, вс
вс900:00+16всв45780 0.0 1014154
03:00+13св68831 0.0 1015258
06:00+13св610790 0.0 1016437
09:00+16св79666 0.0 1017583
12:00+20св78455 0.0 1018951
15:00+22св78338 0.0 10171181
18:00+20св68365 0.0 1016913
21:00+15св57523 0.0 1017243
10 мая, пн
пн1000:00+12св58593 0.0 1017197
03:00+10св58610 0.0 1017182
06:00+9св68650 0.0 1017166
09:00+13св67490 0.0 1016315
12:00+19св56340 0.0 1016661
15:00+23св56280 0.0 1014966
18:00+22св55330 0.0 1013835
21:00+15св45500 0.0 1014152
11 мая, вт
вт1100:00+12св46570 0.0 1014148
03:00+10св46630 0.0 1014145
06:00+9св46700 0.0 1014139
09:00+14св56510 0.0 1014304
12:00+20св453540 0.0 1013622
15:00+24св44250 0.0 1011946
18:00+23св44250 0.0 10101013
21:00+15св45490 0.0 1011144